CAPE
0 0 0 0 0 0 0 0 0 0 0 0 0 0 2 0 0 0 0 0 2 1640 1120 618 353 299 770 373 1122 868 578 489 274 323 331 262 158 100 160 192 174 109 498 696 787
0 0 0 0 0 0 0 0 0 0 0 0 0 0 2 1 0 0 0 0 610 1855 0 3 0 10 14 313 625 607 553 440 298 346 325 352 258 206 241 231 326 651 904 843 701
0 0 0 0 0 0 0 0 0 0 0 0 0 0 0 0 0 0 0 0 2016 762 0 0 0 0 15 22 435 435 175 233 302 359 394 442 320 416 403 324 246 667 906 761 623
0 0 0 0 0 0 0 0 0 0 0 0 0 0 0 0 0 0 322 509 2172 144 8 2 0 0 23 10 10 21 60 206 524 567 459 525 382 446 434 427 305 605 732 660 499
0 0 0 0 0 0 0 0 0 0 0 0 0 0 0 0 0 0 0 861 511 21 13 18 12 14 24 27 23 33 50 133 585 438 519 616 519 614 465 483 426 623 728 555 393
0 0 0 0 0 0 0 0 0 0 0 0 0 0 0 0 0 0 0 0 0 11 13 12 23 24 51 42 21 34 154 454 531 460 545 698 715 681 485 486 578 706 743 684 627
0 0 0 0 0 0 0 0 0 0 0 0 0 0 0 0 0 0 0 0 0 0 5 11 14 15 31 55 30 137 278 417 498 430 522 578 711 790 472 543 729 690 721 720 726
0 0 0 0 0 0 0 0 0 0 0 0 0 0 0 0 0 0 0 0 0 0 0 5 1 5 32 24 34 186 150 264 297 476 451 525 704 550 487 700 705 704 679 793 842
0 0 0 0 0 0 0 0 0 0 0 0 0 0 0 0 0 0 0 0 0 0 0 0 0 0 1 44 28 55 214 158 97 330 309 216 419 515 439 556 753 753 737 774 879
0 0 0 0 0 0 0 0 0 0 0 0 0 0 0 0 0 0 0 0 0 0 0 0 0 0 0 37 47 127 125 48 5 1 250 222 265 463 399 550 584 545 635 803 773
0 0 0 0 0 0 0 0 0 0 0 0 0 0 0 0 0 0 0 0 0 0 0 0 0 0 0 22 63 40 58 21 0 0 58 192 227 115 473 412 488 542 542 481 544
0 0 0 0 0 0 0 0 0 0 0 0 0 0 0 0 0 0 0 0 0 0 0 0 0 0 0 21 76 67 28 3 0 0 57 80 133 69 483 505 410 357 483 536 476
0 0 0 0 0 0 0 0 0 0 0 0 0 0 0 0 0 0 0 0 0 0 0 0 0 0 0 4 111 95 34 2 0 0 2 79 138 168 206 476 592 530 408 440 519
0 0 0 0 0 0 0 0 0 0 0 0 0 0 0 0 0 0 0 0 0 0 0 0 0 0 0 0 109 124 78 0 0 0 0 0 1 144 20 337 417 524 565 506 503
0 0 0 0 0 0 0 0 0 0 0 0 0 0 0 0 0 0 0 0 0 0 0 0 0 0 0 0 0 42 0 4 0 0 0 0 0 0 0 4 52 441 522 592 554
0 0 0 0 0 0 0 0 0 0 0 0 0 0 0 0 0 0 0 0 0 0 0 0 0 0 0 0 0 0 0 0 0 0 0 0 0 0 0 0 2 315 556 550 568
0 0 0 0 0 0 0 0 0 0 0 0 0 0 0 0 0 0 0 0 0 0 0 0 0 0 0 0 0 0 0 0 0 0 0 0 0 0 0 0 0 117 96 671 633
0 0 0 0 0 0 0 0 0 0 0 0 0 0 0 0 0 0 0 0 0 0 0 0 0 0 0 0 0 0 0 0 0 0 0 0 0 0 0 35 193 360 318 569 794
0 0 0 0 0 0 0 0 0 0 0 0 0 0 0 0 0 0 0 0 0 0 0 0 0 0 0 0 0 0 0 0 0 0 0 0 0 0 12 383 405 431 492 674 824
0 0 0 0 0 0 0 0 0 0 0 0 0 0 0 0 0 0 0 0 0 0 0 0 0 0 0 0 0 0 0 0 0 0 0 0 0 0 130 167 362 537 464 475 513
0 0 0 0 0 0 0 0 0 0 0 0 0 0 0 0 0 0 0 0 0 0 0 0 0 0 0 0 0 0 0 0 0 0 0 0 0 0 1 10 45 265 437 427 395
0 0 0 0 0 0 0 0 0 0 0 0 0 0 0 0 0 0 0 0 0 0 0 0 0 0 0 0 0 0 0 0 0 0 0 0 0 0 17 24 40 162 54 48 127
0 0 0 0 0 0 0 0 0 0 0 0 0 0 0 0 0 0 0 0 0 0 0 0 0 0 0 0 0 0 0 0 0 0 0 0 0 0 496 364 74 216 323 178 214
0 0 0 0 0 0 0 0 0 0 0 0 0 0 0 0 0 0 0 0 0 0 0 0 0 0 0 0 0 0 0 0 0 0 0 0 0 50 984 721 1153 1671 1161 972 752
0 0 0 0 0 0 0 0 0 0 0 0 0 0 0 1 35 38 0 0 0 0 0 0 0 0 0 0 0 0 0 0 0 0 0 43 34 817 1191 1419 1690 1882 1775 1952 2275
0 0 0 0 0 0 0 0 0 0 0 0 0 0 0 38 11 41 0 0 0 0 0 0 0 2 0 0 169 364 242 3 6 2 596 346 559 1322 1413 1807 1439 1159 1449 1840 1707
0 0 0 0 0 0 0 0 0 0 0 0 0 0 0 0 9 0 0 0 0 0 0 0 0 17 19 0 0 67 175 298 672 584 596 309 815 1409 1701 1668 1053 1174 872 643 623
CIN
-0 -0 -0 -0 -0 -0 -0 -0 -0 -0 -0 -0 -0 -0 -0 -0 -0 -0 -0 -0 -277 -533 -490 -465 -453 -372 -307 -249 -214 -143 -39 -16 -30 -50 -54 -120 -77 -56 -37 -40 -43 -173 -120 -107 -117
-0 -0 -0 -0 -0 -0 -0 -0 -0 -0 -0 -0 -0 -0 -0 -0 -0 -0 -0 -0 -784 -497 -0 -142 -0 -196 -174 -198 -180 -102 -62 -40 -71 -58 -78 -118 -98 -50 -37 -55 -190 -168 -143 -139 -132
-0 -0 -0 -0 -0 -0 -0 -0 -0 -0 -0 -0 -0 -0 -0 -0 -0 -0 -0 -0 -472 -578 -0 -0 -0 -0 -192 -186 -145 -123 -58 -103 -30 -82 -40 -112 -138 -135 -47 -50 -174 -150 -163 -167 -153
-0 -0 -0 -0 -0 -0 -0 -0 -0 -0 -0 -0 -0 -0 -0 -0 -0 -0 -735 -700 -426 -685 -301 -314 -17 -7 -196 -213 -180 -147 -78 -14 -77 -122 -137 -130 -129 -130 -63 -126 -80 -189 -176 -179 -173
-0 -0 -0 -0 -0 -0 -0 -0 -0 -0 -0 -0 -0 -0 -0 -0 -0 -0 -0 -622 -608 -302 -302 -303 -291 -244 -209 -196 -170 -131 -105 -154 -77 -32 -126 -156 -139 -125 -78 -54 -230 -236 -187 -158 -137
-0 -0 -0 -0 -0 -0 -0 -0 -0 -0 -0 -0 -0 -0 -0 -0 -0 -0 -0 -0 -0 -333 -303 -301 -258 -273 -172 -176 -187 -128 -118 -93 -81 -68 -113 -109 -147 -144 -69 -65 -285 -254 -184 -121 -92
-0 -0 -0 -0 -0 -0 -0 -0 -0 -0 -0 -0 -0 -0 -0 -0 -0 -0 -0 -0 -0 -19 -317 -290 -273 -265 -167 -135 -164 -101 -61 -58 -90 -34 -84 -112 -134 -111 -74 -290 -250 -244 -194 -149 -98
-0 -0 -0 -0 -0 -0 -0 -0 -0 -0 -0 -0 -0 -0 -0 -0 -0 -0 -0 -0 -0 -0 -0 -215 -275 -214 -133 -136 -155 -57 -52 -34 -71 -48 -41 -78 -40 -102 -108 -253 -255 -241 -220 -187 -160
-0 -0 -0 -0 -0 -0 -0 -0 -0 -0 -0 -0 -0 -0 -0 -0 -0 -0 -0 -0 -0 -0 -0 -0 -0 -0 -8 -100 -133 -107 -24 -52 -53 -66 -46 -104 -58 -225 -141 -137 -256 -258 -239 -223 -196
-0 -0 -0 -0 -0 -0 -0 -0 -0 -0 -0 -0 -0 -0 -0 -0 -0 -0 -0 -0 -0 -0 -0 -0 -0 -0 -11 -98 -114 -87 -43 -99 -158 -67 -108 -94 -72 -260 -168 -122 -121 -151 -271 -242 -234
-0 -0 -0 -0 -0 -0 -0 -0 -0 -0 -0 -0 -0 -0 -0 -0 -0 -0 -0 -0 -0 -0 -0 -0 -0 -0 -0 -133 -100 -123 -93 -51 -0 -0 -146 -113 -99 -186 -285 -170 -173 -136 -103 -58 -235
-0 -0 -0 -0 -0 -0 -0 -0 -0 -0 -0 -0 -0 -0 -0 -0 -0 -0 -0 -0 -0 -0 -0 -0 -0 -0 -0 -121 -62 -78 -81 -116 -0 -0 -108 -134 -100 -163 -232 -280 -262 -229 -166 -121 -59
-0 -0 -0 -0 -0 -0 -0 -0 -0 -0 -0 -0 -0 -0 -0 -0 -0 -0 -0 -0 -0 -0 -0 -0 -0 -0 -0 -34 -32 -38 -49 -31 -0 -0 -39 -127 -79 -157 -233 -307 -320 -326 -293 -187 -128
-0 -0 -0 -0 -0 -0 -0 -0 -0 -0 -0 -0 -0 -0 -0 -0 -0 -0 -0 -0 -0 -0 -0 -0 -0 -0 -0 -0 -30 -7 -6 -0 -0 -0 -0 -0 -2 -43 -203 -212 -333 -309 -325 -281 -248
-0 -0 -0 -0 -0 -0 -0 -0 -0 -0 -0 -0 -0 -0 -0 -0 -0 -0 -0 -0 -0 -0 -0 -0 -0 -0 -0 -0 -0 -42 -0 -3 -0 -0 -0 -0 -0 -0 -6 -36 -45 -278 -311 -315 -287
-0 -0 -0 -0 -0 -0 -0 -0 -0 -0 -0 -0 -0 -0 -0 -0 -0 -0 -0 -0 -0 -0 -0 -0 -0 -0 -0 -0 -0 -0 -0 -0 -0 -0 -0 -0 -0 -0 -0 -0 -86 -292 -332 -314 -289
-0 -0 -0 -0 -0 -0 -0 -0 -0 -0 -0 -0 -0 -0 -0 -0 -0 -0 -0 -0 -0 -0 -0 -0 -0 -0 -0 -0 -0 -0 -0 -0 -0 -0 -0 -0 -0 -0 -0 -0 -0 -324 -352 -346 -288
-0 -0 -0 -0 -0 -0 -0 -0 -0 -0 -0 -0 -0 -0 -0 -0 -0 -0 -0 -0 -0 -0 -0 -0 -0 -0 -0 -0 -0 -0 -0 -0 -0 -0 -0 -0 -0 -0 -0 -147 -351 -408 -127 -361 -291
-0 -0 -0 -0 -0 -0 -0 -0 -0 -0 -0 -0 -0 -0 -0 -0 -0 -0 -0 -0 -0 -0 -0 -0 -0 -0 -0 -0 -0 -0 -0 -0 -0 -0 -0 -0 -0 -0 -76 -162 -231 -273 -134 -281 -249
-0 -0 -0 -0 -0 -0 -0 -0 -0 -0 -0 -0 -0 -0 -0 -0 -0 -0 -0 -0 -0 -0 -0 -0 -0 -0 -0 -0 -0 -0 -0 -0 -0 -0 -0 -0 -0 -0 -60 -89 -133 -190 -204 -231 -98
-0 -0 -0 -0 -0 -0 -0 -0 -0 -0 -0 -0 -0 -0 -0 -0 -0 -0 -0 -0 -0 -0 -0 -0 -0 -0 -0 -0 -0 -0 -0 -0 -0 -0 -0 -0 -0 -0 -19 -78 -270 -232 -256 -269 -237
-0 -0 -0 -0 -0 -0 -0 -0 -0 -0 -0 -0 -0 -0 -0 -0 -0 -0 -0 -0 -0 -0 -0 -0 -0 -0 -0 -0 -0 -0 -0 -0 -0 -0 -0 -0 -0 -0 -341 -55 -74 -251 -351 -393 -387
-0 -0 -0 -0 -0 -0 -0 -0 -0 -0 -0 -0 -0 -0 -0 -0 -0 -0 -0 -0 -0 -0 -0 -0 -0 -0 -0 -0 -0 -0 -0 -0 -0 -0 -0 -0 -0 -0 -185 -189 -342 -360 -381 -420 -390
-0 -0 -0 -0 -0 -0 -0 -0 -0 -0 -0 -0 -0 -0 -0 -0 -0 -0 -0 -0 -0 -0 -0 -0 -0 -0 -0 -0 -0 -0 -0 -0 -0 -0 -0 -0 -0 -41 -150 -229 -256 -273 -338 -218 -205
-0 -0 -0 -0 -0 -0 -0 -0 -0 -0 -0 -0 -0 -0 -0 -17 -151 -136 -0 -0 -0 -0 -0 -0 -0 -0 -0 -0 -0 -0 -0 -0 -0 -0 -0 -51 -51 -108 -239 -281 -297 -259 -262 -273 -228
-0 -0 -0 -0 -0 -0 -0 -0 -0 -0 -0 -0 -0 -0 -0 -97 -173 -96 -2 -0 -0 -0 -0 -0 -0 -33 -1 -0 -57 -72 -137 -2 -61 -2 -105 -134 -79 -206 -263 -238 -229 -280 -252 -233 -288
-0 -0 -0 -0 -0 -0 -0 -0 -0 -0 -0 -0 -0 -0 -0 -0 -92 -0 -0 -0 -0 -0 -0 -0 -13 -77 -27 -0 -0 -31 -59 -84 -125 -174 -86 -32 -75 -164 -149 -199 -197 -241 -278 -310 -370
Wind_Speed
nan nan nan nan nan nan nan nan nan nan nan nan nan nan nan nan nan nan nan nan nan 12 8 5 7 8 10 9 11 17 23 22 24 25 24 25 18 20 20 27 20 15 14 13 19
nan nan nan nan nan nan nan nan nan nan nan nan nan nan nan nan nan nan nan nan 9 12 nan nan nan nan nan 6 9 15 21 22 18 21 22 25 20 19 19 25 19 12 12 20 19
nan nan nan nan nan nan nan nan nan nan nan nan nan nan nan nan nan nan nan nan 12 10 nan nan nan nan nan nan 10 9 17 19 20 20 17 22 19 16 18 26 28 32 28 24 21
nan nan nan nan nan nan nan nan nan nan nan nan nan nan nan nan nan nan 7 3 14 5 nan nan nan nan nan nan nan nan nan 18 17 15 13 19 17 19 22 20 27 33 36 35 28
nan nan nan nan nan nan nan nan nan nan nan nan nan nan nan nan nan nan nan 12 17 nan nan nan nan nan nan nan nan nan nan 6 9 6 7 11 18 19 25 20 28 30 31 34 35
nan nan nan nan nan nan nan nan nan nan nan nan nan nan nan nan nan nan nan nan nan nan nan nan nan nan nan nan nan nan 8 2 2 4 6 8 11 14 16 21 27 32 36 33 33
nan nan nan nan nan nan nan nan nan nan nan nan nan nan nan nan nan nan nan nan nan nan nan nan nan nan nan nan nan 3 5 8 4 2 1 6 8 16 12 18 24 33 34 32 32
nan nan nan nan nan nan nan nan nan nan nan nan nan nan nan nan nan nan nan nan nan nan nan nan nan nan nan nan nan 5 8 12 6 6 2 5 8 8 18 21 24 28 33 29 31
nan nan nan nan nan nan nan nan nan nan nan nan nan nan nan nan nan nan nan nan nan nan nan nan nan nan nan nan nan nan 14 9 nan 6 10 5 7 5 20 20 20 24 31 34 27
nan nan nan nan nan nan nan nan nan nan nan nan nan nan nan nan nan nan nan nan nan nan nan nan nan nan nan nan nan 21 12 nan nan nan 13 9 9 2 17 21 26 29 30 31 33
nan nan nan nan nan nan nan nan nan nan nan nan nan nan nan nan nan nan nan nan nan nan nan nan nan nan nan nan nan nan nan nan nan nan nan 5 13 4 13 18 21 25 28 32 32
nan nan nan nan nan nan nan nan nan nan nan nan nan nan nan nan nan nan nan nan nan nan nan nan nan nan nan nan nan nan nan nan nan nan nan nan 12 nan 13 19 22 26 26 28 29
nan nan nan nan nan nan nan nan nan nan nan nan nan nan nan nan nan nan nan nan nan nan nan nan nan nan nan nan 20 nan nan nan nan nan nan nan 4 6 6 8 11 19 23 27 27
nan nan nan nan nan nan nan nan nan nan nan nan nan nan nan nan nan nan nan nan nan nan nan nan nan nan nan nan 17 13 nan nan nan nan nan nan nan 9 nan 7 3 16 23 25 25
nan nan nan nan nan nan nan nan nan nan nan nan nan nan nan nan nan nan nan nan nan nan nan nan nan nan nan nan nan nan nan nan nan nan nan nan nan nan nan nan nan 12 18 22 21
nan nan nan nan nan nan nan nan nan nan nan nan nan nan nan nan nan nan nan nan nan nan nan nan nan nan nan nan nan nan nan nan nan nan nan nan nan nan nan nan nan 4 6 10 16
nan nan nan nan nan nan nan nan nan nan nan nan nan nan nan nan nan nan nan nan nan nan nan nan nan nan nan nan nan nan nan nan nan nan nan nan nan nan nan nan nan 15 nan 7 11
nan nan nan nan nan nan nan nan nan nan nan nan nan nan nan nan nan nan nan nan nan nan nan nan nan nan nan nan nan nan nan nan nan nan nan nan nan nan nan nan 5 5 2 13 23
nan nan nan nan nan nan nan nan nan nan nan nan nan nan nan nan nan nan nan nan nan nan nan nan nan nan nan nan nan nan nan nan nan nan nan nan nan nan nan 10 7 9 13 19 23
nan nan nan nan nan nan nan nan nan nan nan nan nan nan nan nan nan nan nan nan nan nan nan nan nan nan nan nan nan nan nan nan nan nan nan nan nan nan 11 16 12 6 9 14 16
nan nan nan nan nan nan nan nan nan nan nan nan nan nan nan nan nan nan nan nan nan nan nan nan nan nan nan nan nan nan nan nan nan nan nan nan nan nan nan nan nan 13 15 16 16
nan nan nan nan nan nan nan nan nan nan nan nan nan nan nan nan nan nan nan nan nan nan nan nan nan nan nan nan nan nan nan nan nan nan nan nan nan nan nan nan nan 16 nan nan 10
nan nan nan nan nan nan nan nan nan nan nan nan nan nan nan nan nan nan nan nan nan nan nan nan nan nan nan nan nan nan nan nan nan nan nan nan nan nan 16 16 nan 17 10 7 11
nan nan nan nan nan nan nan nan nan nan nan nan nan nan nan nan nan nan nan nan nan nan nan nan nan nan nan nan nan nan nan nan nan nan nan nan nan nan 19 17 19 21 18 16 12
nan nan nan nan nan nan nan nan nan nan nan nan nan nan nan nan nan nan nan nan nan nan nan nan nan nan nan nan nan nan nan nan nan nan nan nan nan 4 14 17 19 22 23 20 19
nan nan nan nan nan nan nan nan nan nan nan nan nan nan nan nan nan nan nan nan nan nan nan nan nan nan nan nan 19 27 22 nan nan nan 18 16 12 9 7 12 19 22 23 24 23
nan nan nan nan nan nan nan nan nan nan nan nan nan nan nan nan nan nan nan nan nan nan nan nan nan nan nan nan nan nan 21 18 19 20 20 18 22 22 24 22 14 15 22 21 22
Wind_Direction
nan nan nan nan nan nan nan nan nan nan nan nan nan nan nan nan nan nan nan nan nan 319 274 274 127 91 94 106 92 96 90 82 72 65 64 34 39 37 39 20 39 54 33 356 351
nan nan nan nan nan nan nan nan nan nan nan nan nan nan nan nan nan nan nan nan 317 328 nan nan nan nan nan 93 82 96 94 81 78 59 68 40 36 26 40 31 48 18 348 341 351
nan nan nan nan nan nan nan nan nan nan nan nan nan nan nan nan nan nan nan nan 333 341 nan nan nan nan nan nan 71 81 100 93 82 64 46 40 40 44 20 45 47 25 8 0 7
nan nan nan nan nan nan nan nan nan nan nan nan nan nan nan nan nan nan 180 330 329 328 nan nan nan nan nan nan nan nan nan 90 83 56 38 44 48 52 39 46 33 20 15 13 10
nan nan nan nan nan nan nan nan nan nan nan nan nan nan nan nan nan nan nan 281 309 nan nan nan nan nan nan nan nan nan nan 93 94 45 36 33 62 71 52 33 11 14 18 21 26
nan nan nan nan nan nan nan nan nan nan nan nan nan nan nan nan nan nan nan nan nan nan nan nan nan nan nan nan nan nan 111 182 161 19 29 45 79 66 51 13 4 10 20 26 31
nan nan nan nan nan nan nan nan nan nan nan nan nan nan nan nan nan nan nan nan nan nan nan nan nan nan nan nan nan 289 272 279 246 324 89 10 69 74 24 13 1 360 10 22 34
nan nan nan nan nan nan nan nan nan nan nan nan nan nan nan nan nan nan nan nan nan nan nan nan nan nan nan nan nan 237 282 348 307 311 319 13 87 76 13 12 6 4 3 17 28
nan nan nan nan nan nan nan nan nan nan nan nan nan nan nan nan nan nan nan nan nan nan nan nan nan nan nan nan nan nan 291 340 nan 356 319 46 96 23 9 12 18 14 7 13 22
nan nan nan nan nan nan nan nan nan nan nan nan nan nan nan nan nan nan nan nan nan nan nan nan nan nan nan nan nan 272 281 nan nan nan 40 74 106 7 48 35 17 12 13 15 18
nan nan nan nan nan nan nan nan nan nan nan nan nan nan nan nan nan nan nan nan nan nan nan nan nan nan nan nan nan nan nan nan nan nan nan 91 129 127 40 49 32 17 9 10 22
nan nan nan nan nan nan nan nan nan nan nan nan nan nan nan nan nan nan nan nan nan nan nan nan nan nan nan nan nan nan nan nan nan nan nan nan 151 nan 7 30 35 24 16 11 16
nan nan nan nan nan nan nan nan nan nan nan nan nan nan nan nan nan nan nan nan nan nan nan nan nan nan nan nan 252 nan nan nan nan nan nan nan 231 259 292 20 51 35 19 18 12
nan nan nan nan nan nan nan nan nan nan nan nan nan nan nan nan nan nan nan nan nan nan nan nan nan nan nan nan 239 240 nan nan nan nan nan nan nan 255 nan 267 27 21 21 21 7
nan nan nan nan nan nan nan nan nan nan nan nan nan nan nan nan nan nan nan nan nan nan nan nan nan nan nan nan nan nan nan nan nan nan nan nan nan nan nan nan nan 3 14 32 17
nan nan nan nan nan nan nan nan nan nan nan nan nan nan nan nan nan nan nan nan nan nan nan nan nan nan nan nan nan nan nan nan nan nan nan nan nan nan nan nan nan 149 84 33 18
nan nan nan nan nan nan nan nan nan nan nan nan nan nan nan nan nan nan nan nan nan nan nan nan nan nan nan nan nan nan nan nan nan nan nan nan nan nan nan nan nan 156 nan 353 352
nan nan nan nan nan nan nan nan nan nan nan nan nan nan nan nan nan nan nan nan nan nan nan nan nan nan nan nan nan nan nan nan nan nan nan nan nan nan nan nan 139 176 318 323 332
nan nan nan nan nan nan nan nan nan nan nan nan nan nan nan nan nan nan nan nan nan nan nan nan nan nan nan nan nan nan nan nan nan nan nan nan nan nan nan 198 259 266 290 308 315
nan nan nan nan nan nan nan nan nan nan nan nan nan nan nan nan nan nan nan nan nan nan nan nan nan nan nan nan nan nan nan nan nan nan nan nan nan nan 174 198 214 235 267 282 304
nan nan nan nan nan nan nan nan nan nan nan nan nan nan nan nan nan nan nan nan nan nan nan nan nan nan nan nan nan nan nan nan nan nan nan nan nan nan nan nan nan 227 266 282 315
nan nan nan nan nan nan nan nan nan nan nan nan nan nan nan nan nan nan nan nan nan nan nan nan nan nan nan nan nan nan nan nan nan nan nan nan nan nan nan nan nan 247 nan nan 325
nan nan nan nan nan nan nan nan nan nan nan nan nan nan nan nan nan nan nan nan nan nan nan nan nan nan nan nan nan nan nan nan nan nan nan nan nan nan 230 240 nan 258 250 295 324
nan nan nan nan nan nan nan nan nan nan nan nan nan nan nan nan nan nan nan nan nan nan nan nan nan nan nan nan nan nan nan nan nan nan nan nan nan nan 216 217 237 263 279 298 310
nan nan nan nan nan nan nan nan nan nan nan nan nan nan nan nan nan nan nan nan nan nan nan nan nan nan nan nan nan nan nan nan nan nan nan nan nan 180 195 217 235 259 267 273 266
nan nan nan nan nan nan nan nan nan nan nan nan nan nan nan nan nan nan nan nan nan nan nan nan nan nan nan nan 252 245 243 nan nan nan 277 287 306 282 284 288 258 253 252 257 267
nan nan nan nan nan nan nan nan nan nan nan nan nan nan nan nan nan nan nan nan nan nan nan nan nan nan nan nan nan nan 238 240 250 264 274 281 284 294 299 296 287 236 223 235 243